Time,TemperatureF,DewpointF,PressureIn,WindDirection,WindDirectionDegrees,WindSpeedMPH,WindSpeedGustMPH,Humidity,HourlyPrecipIn,Conditions,Clouds,dailyrainin,SoftwareType,DateUTC
2013-03-31 00:02:00,46.0,-99.9,29.92,WSW,237,0.0,0.0,74,0.00,,,0.00,,2013-03-31 04:02:00,
2013-03-31 00:13:00,46.0,38.0,29.92,WSW,237,0.0,0.0,74,0.00,,,0.00,,2013-03-31 04:13:00,
2013-03-31 00:23:00,45.0,38.0,29.91,WSW,237,0.0,0.0,76,0.00,,,0.00,,2013-03-31 04:23:00,
2013-03-31 00:32:00,45.0,38.0,29.91,WSW,238,0.0,0.0,77,0.00,,,0.00,,2013-03-31 04:32:00,
2013-03-31 00:42:00,45.0,38.0,29.91,WSW,238,0.0,0.0,77,0.00,,,0.00,,2013-03-31 04:42:00,
2013-03-31 00:52:00,45.0,39.0,29.90,WSW,238,0.0,0.0,79,0.00,,,0.00,,2013-03-31 04:52:00,
2013-03-31 01:02:00,45.0,39.0,29.89,WSW,237,0.0,0.0,79,0.00,,,0.00,,2013-03-31 05:02:00,
2013-03-31 01:12:00,45.0,39.0,29.89,WSW,237,0.0,0.0,79,0.00,,,0.00,,2013-03-31 05:12:00,
2013-03-31 01:22:00,45.0,39.0,29.88,WSW,238,0.0,0.0,79,0.00,,,0.00,,2013-03-31 05:22:00,
2013-03-31 01:32:00,45.0,39.0,29.87,WSW,237,0.0,1.0,79,0.00,,,0.00,,2013-03-31 05:32:00,
2013-03-31 01:42:00,45.0,39.0,29.87,WSW,237,0.0,1.0,79,0.00,,,0.00,,2013-03-31 05:42:00,
2013-03-31 01:53:00,45.0,39.0,29.88,WSW,238,0.0,0.0,79,0.00,,,0.00,,2013-03-31 05:53:00,
2013-03-31 02:02:00,45.0,39.0,29.87,WSW,238,0.0,0.0,79,0.00,,,0.00,,2013-03-31 06:02:00,
2013-03-31 02:12:00,45.0,39.0,29.87,WSW,238,0.0,0.0,79,0.00,,,0.00,,2013-03-31 06:12:00,
2013-03-31 02:22:00,45.0,39.0,29.87,WSW,238,0.0,0.0,80,0.00,,,0.00,,2013-03-31 06:22:00,
2013-03-31 02:32:00,45.0,40.0,29.86,WSW,237,0.0,0.0,81,0.00,,,0.00,,2013-03-31 06:32:00,
2013-03-31 02:42:00,45.0,40.0,29.86,WSW,237,0.0,0.0,81,0.00,,,0.00,,2013-03-31 06:42:00,
2013-03-31 02:52:00,45.0,40.0,29.86,WSW,238,0.0,0.0,81,0.00,,,0.00,,2013-03-31 06:52:00,
2013-03-31 03:02:00,45.0,40.0,29.85,WSW,238,0.0,1.0,81,0.00,,,0.00,,2013-03-31 07:02:00,
2013-03-31 03:12:00,45.0,40.0,29.85,WSW,238,0.0,1.0,81,0.00,,,0.00,,2013-03-31 07:12:00,
2013-03-31 03:22:00,45.0,40.0,29.85,WSW,238,0.0,2.0,81,0.00,,,0.00,,2013-03-31 07:22:00,
2013-03-31 03:32:00,45.0,40.0,29.84,WSW,237,0.0,1.0,83,0.00,,,0.00,,2013-03-31 07:32:00,
2013-03-31 03:42:00,45.0,40.0,29.84,WSW,237,0.0,1.0,83,0.00,,,0.00,,2013-03-31 07:42:00,
2013-03-31 03:53:00,46.0,41.0,29.84,WNW,301,2.0,4.0,83,0.00,,,0.00,,2013-03-31 07:53:00,
2013-03-31 04:02:00,47.0,42.0,29.84,NW,314,2.0,4.0,83,0.00,,,0.00,,2013-03-31 08:02:00,
2013-03-31 04:12:00,47.0,42.0,29.84,NW,314,2.0,4.0,83,0.00,,,0.00,,2013-03-31 08:12:00,
2013-03-31 04:22:00,47.0,42.0,29.83,NW,317,2.0,5.0,84,0.00,,,0.00,,2013-03-31 08:22:00,
2013-03-31 04:32:00,46.0,42.0,29.82,NW,319,2.0,6.0,85,0.00,,,0.00,,2013-03-31 08:32:00,
2013-03-31 04:42:00,46.0,42.0,29.82,NW,319,2.0,6.0,85,0.00,,,0.00,,2013-03-31 08:42:00,
2013-03-31 04:52:00,46.0,42.0,29.82,NW,319,1.0,3.0,86,0.00,,,0.00,,2013-03-31 08:52:00,
2013-03-31 05:02:00,46.0,42.0,29.82,NW,319,2.0,4.0,87,0.00,,,0.00,,2013-03-31 09:02:00,
2013-03-31 05:12:00,46.0,42.0,29.82,NW,319,2.0,4.0,87,0.00,,,0.00,,2013-03-31 09:12:00,
2013-03-31 05:22:00,45.0,42.0,29.81,NW,318,1.0,4.0,88,0.00,,,0.00,,2013-03-31 09:22:00,
2013-03-31 05:33:00,45.0,42.0,29.81,NW,319,2.0,4.0,89,0.00,,,0.00,,2013-03-31 09:33:00,
2013-03-31 05:42:00,45.0,42.0,29.81,NW,319,2.0,4.0,89,0.00,,,0.00,,2013-03-31 09:42:00,
2013-03-31 05:53:00,46.0,43.0,29.80,NW,318,1.0,5.0,90,0.00,,,0.00,,2013-03-31 09:53:00,
2013-03-31 06:03:00,45.0,43.0,29.80,NW,319,2.0,3.0,91,0.00,,,0.00,,2013-03-31 10:03:00,
2013-03-31 06:13:00,45.0,43.0,29.80,NW,319,2.0,3.0,91,0.00,,,0.00,,2013-03-31 10:13:00,
2013-03-31 06:23:00,45.0,43.0,29.81,NW,318,2.0,6.0,92,0.00,,,0.00,,2013-03-31 10:23:00,
2013-03-31 06:32:00,45.0,43.0,29.81,NW,319,2.0,4.0,93,0.00,,,0.00,,2013-03-31 10:32:00,
2013-03-31 06:42:00,45.0,43.0,29.81,NW,319,2.0,4.0,93,0.00,,,0.00,,2013-03-31 10:42:00,
2013-03-31 06:53:00,45.0,43.0,29.80,NW,318,1.0,3.0,93,0.01,,,0.01,,2013-03-31 10:53:00,
2013-03-31 07:02:00,45.0,43.0,29.80,NW,310,1.0,5.0,94,0.01,,,0.01,,2013-03-31 11:02:00,
2013-03-31 07:12:00,45.0,43.0,29.80,NW,310,1.0,5.0,94,0.01,,,0.01,,2013-03-31 11:12:00,
2013-03-31 07:23:00,45.0,43.0,29.81,NW,310,2.0,4.0,94,0.01,,,0.01,,2013-03-31 11:23:00,
2013-03-31 07:32:00,45.0,44.0,29.81,NW,310,2.0,5.0,95,0.01,,,0.01,,2013-03-31 11:32:00,
2013-03-31 07:42:00,45.0,44.0,29.81,NW,310,2.0,5.0,95,0.01,,,0.01,,2013-03-31 11:42:00,
2013-03-31 07:52:00,45.0,44.0,29.81,NW,310,4.0,6.0,95,0.00,,,0.01,,2013-03-31 11:52:00,
2013-03-31 08:02:00,45.0,44.0,29.81,NW,310,2.0,5.0,95,0.00,,,0.01,,2013-03-31 12:02:00,
2013-03-31 08:12:00,45.0,44.0,29.81,NW,310,2.0,5.0,95,0.00,,,0.01,,2013-03-31 12:12:00,
2013-03-31 08:22:00,45.0,44.0,29.80,NW,311,2.0,4.0,96,0.00,,,0.01,,2013-03-31 12:22:00,
2013-03-31 08:33:00,45.0,44.0,29.80,NW,311,2.0,5.0,96,0.00,,,0.01,,2013-03-31 12:33:00,
2013-03-31 08:42:00,45.0,44.0,29.80,NW,311,2.0,5.0,96,0.00,,,0.01,,2013-03-31 12:42:00,
2013-03-31 08:53:00,45.0,44.0,29.81,NW,311,3.0,5.0,96,0.00,,,0.01,,2013-03-31 12:53:00,
2013-03-31 09:02:00,45.0,44.0,29.81,NW,312,2.0,4.0,96,0.00,,,0.01,,2013-03-31 13:02:00,
2013-03-31 09:12:00,45.0,44.0,29.81,NW,312,2.0,4.0,96,0.00,,,0.01,,2013-03-31 13:12:00,
2013-03-31 09:22:00,46.0,45.0,29.80,NW,312,2.0,4.0,96,0.00,,,0.01,,2013-03-31 13:22:00,
2013-03-31 09:32:00,46.0,45.0,29.81,NW,312,2.0,5.0,96,0.00,,,0.01,,2013-03-31 13:32:00,
2013-03-31 09:42:00,46.0,45.0,29.81,NW,312,2.0,5.0,96,0.00,,,0.01,,2013-03-31 13:42:00,
2013-03-31 09:53:00,46.0,45.0,29.81,NW,312,3.0,6.0,96,0.00,,,0.01,,2013-03-31 13:53:00,
2013-03-31 10:02:00,46.0,45.0,29.81,NW,313,4.0,7.0,96,0.00,,,0.01,,2013-03-31 14:02:00,
2013-03-31 10:12:00,46.0,45.0,29.81,NW,313,4.0,7.0,96,0.00,,,0.01,,2013-03-31 14:12:00,
2013-03-31 10:22:00,47.0,46.0,29.81,NW,319,3.0,7.0,96,0.00,,,0.01,,2013-03-31 14:22:00,
2013-03-31 10:32:00,47.0,46.0,29.81,NW,318,4.0,8.0,96,0.00,,,0.01,,2013-03-31 14:32:00,
2013-03-31 10:42:00,47.0,46.0,29.81,NW,318,4.0,8.0,96,0.00,,,0.01,,2013-03-31 14:42:00,
2013-03-31 10:52:00,47.0,45.0,29.82,NW,319,3.0,7.0,94,0.00,,,0.01,,2013-03-31 14:52:00,
2013-03-31 11:02:00,48.0,46.0,29.81,NW,313,6.0,10.0,93,0.00,,,0.01,,2013-03-31 15:02:00,
2013-03-31 11:12:00,48.0,46.0,29.81,NW,313,6.0,10.0,93,0.00,,,0.01,,2013-03-31 15:12:00,
2013-03-31 11:22:00,49.0,46.0,29.81,NW,322,6.0,10.0,90,0.00,,,0.01,,2013-03-31 15:22:00,
2013-03-31 11:33:00,51.0,46.0,29.81,NW,324,5.0,10.0,83,0.00,,,0.01,,2013-03-31 15:33:00,
2013-03-31 11:43:00,51.0,46.0,29.81,NW,324,5.0,10.0,83,0.00,,,0.01,,2013-03-31 15:43:00,
2013-03-31 11:54:00,53.0,47.0,29.81,NW,316,7.0,10.0,81,0.00,,,0.01,,2013-03-31 15:54:00,
2013-03-31 12:03:00,54.0,48.0,29.81,NW,323,5.0,10.0,79,0.00,,,0.01,,2013-03-31 16:03:00,
2013-03-31 12:13:00,54.0,48.0,29.81,NW,323,5.0,10.0,79,0.00,,,0.01,,2013-03-31 16:13:00,
2013-03-31 12:23:00,56.0,48.0,29.81,NW,323,5.0,10.0,74,0.00,,,0.01,,2013-03-31 16:23:00,
2013-03-31 12:33:00,57.0,47.0,29.82,NNW,337,7.0,11.0,70,0.00,,,0.01,,2013-03-31 16:33:00,
2013-03-31 12:42:00,57.0,47.0,29.82,NNW,337,7.0,11.0,70,0.00,,,0.01,,2013-03-31 16:42:00,
2013-03-31 12:53:00,57.0,45.0,29.81,NNW,341,4.0,10.0,65,0.00,,,0.01,,2013-03-31 16:53:00,
2013-03-31 13:03:00,58.0,45.0,29.80,NNW,336,4.0,13.0,63,0.00,,,0.01,,2013-03-31 17:03:00,
2013-03-31 13:12:00,58.0,45.0,29.80,NNW,336,4.0,13.0,63,0.00,,,0.01,,2013-03-31 17:12:00,
2013-03-31 13:22:00,59.0,45.0,29.80,NNW,329,5.0,12.0,60,0.00,,,0.01,,2013-03-31 17:22:00,
2013-03-31 13:32:00,59.0,45.0,29.80,NW,324,5.0,9.0,60,0.00,,,0.01,,2013-03-31 17:32:00,
2013-03-31 13:42:00,59.0,45.0,29.80,NW,324,5.0,9.0,60,0.00,,,0.01,,2013-03-31 17:42:00,
2013-03-31 13:52:00,60.0,45.0,29.79,NW,319,7.0,13.0,57,0.00,,,0.01,,2013-03-31 17:52:00,
2013-03-31 14:02:00,61.0,46.0,29.78,NNW,347,5.0,11.0,58,0.00,,,0.01,,2013-03-31 18:02:00,
2013-03-31 14:12:00,61.0,46.0,29.78,NNW,347,5.0,11.0,58,0.00,,,0.01,,2013-03-31 18:12:00,
2013-03-31 14:22:00,61.0,47.0,29.78,NNW,333,6.0,13.0,60,0.00,,,0.01,,2013-03-31 18:22:00,
2013-03-31 14:32:00,61.0,46.0,29.77,WNW,300,7.0,10.0,57,0.00,,,0.01,,2013-03-31 18:32:00,
2013-03-31 14:42:00,61.0,46.0,29.77,WNW,300,7.0,10.0,57,0.00,,,0.01,,2013-03-31 18:42:00,
2013-03-31 14:53:00,62.0,46.0,29.77,NNW,336,9.0,13.0,56,0.00,,,0.01,,2013-03-31 18:53:00,
2013-03-31 15:03:00,62.0,47.0,29.76,NW,321,7.0,13.0,57,0.00,,,0.01,,2013-03-31 19:03:00,
2013-03-31 15:12:00,62.0,47.0,29.76,NW,321,7.0,13.0,57,0.00,,,0.01,,2013-03-31 19:12:00,
2013-03-31 15:22:00,63.0,48.0,29.76,NNW,329,9.0,14.0,58,0.00,,,0.01,,2013-03-31 19:22:00,
2013-03-31 15:32:00,63.0,47.0,29.76,NW,321,5.0,14.0,56,0.00,,,0.01,,2013-03-31 19:32:00,
2013-03-31 15:42:00,63.0,47.0,29.76,NW,321,5.0,14.0,56,0.00,,,0.01,,2013-03-31 19:42:00,
2013-03-31 15:54:00,63.0,48.0,29.76,NW,321,5.0,13.0,58,0.00,,,0.01,,2013-03-31 19:54:00,
2013-03-31 16:02:00,63.0,45.0,29.75,NW,310,11.0,16.0,51,0.00,,,0.01,,2013-03-31 20:02:00,
2013-03-31 16:12:00,63.0,45.0,29.75,NW,310,11.0,16.0,51,0.00,,,0.01,,2013-03-31 20:12:00,
2013-03-31 16:22:00,61.0,45.0,29.75,NW,321,6.0,12.0,55,0.00,,,0.01,,2013-03-31 20:22:00,
2013-03-31 16:33:00,62.0,43.0,29.75,NW,315,8.0,15.0,49,0.00,,,0.01,,2013-03-31 20:33:00,
2013-03-31 16:43:00,62.0,43.0,29.75,NW,315,8.0,15.0,49,0.00,,,0.01,,2013-03-31 20:43:00,
2013-03-31 16:53:00,63.0,45.0,29.74,NW,319,10.0,15.0,51,0.00,,,0.01,,2013-03-31 20:53:00,
2013-03-31 17:02:00,62.0,45.0,29.74,NNW,327,10.0,17.0,53,0.00,,,0.01,,2013-03-31 21:02:00,
2013-03-31 17:12:00,62.0,45.0,29.74,NNW,327,10.0,17.0,53,0.00,,,0.01,,2013-03-31 21:12:00,
2013-03-31 17:22:00,63.0,44.0,29.74,NW,315,12.0,18.0,49,0.00,,,0.01,,2013-03-31 21:22:00,
2013-03-31 17:33:00,61.0,45.0,29.74,NNW,328,11.0,16.0,55,0.00,,,0.01,,2013-03-31 21:33:00,
2013-03-31 17:43:00,61.0,45.0,29.74,NNW,328,11.0,16.0,55,0.00,,,0.01,,2013-03-31 21:43:00,
2013-03-31 17:53:00,61.0,45.0,29.73,NW,324,10.0,14.0,56,0.00,,,0.01,,2013-03-31 21:53:00,
2013-03-31 18:03:00,59.0,44.0,29.73,NW,321,8.0,14.0,57,0.00,,,0.01,,2013-03-31 22:03:00,
2013-03-31 18:13:00,59.0,44.0,29.73,NW,321,8.0,14.0,57,0.00,,,0.01,,2013-03-31 22:13:00,
2013-03-31 18:23:00,59.0,43.0,29.74,NW,319,10.0,17.0,56,0.00,,,0.01,,2013-03-31 22:23:00,
2013-03-31 18:33:00,57.0,44.0,29.75,NW,311,7.0,14.0,61,0.00,,,0.01,,2013-03-31 22:33:00,
2013-03-31 18:42:00,57.0,44.0,29.75,NW,311,7.0,14.0,61,0.00,,,0.01,,2013-03-31 22:42:00,
2013-03-31 18:53:00,57.0,45.0,29.75,NW,318,8.0,14.0,65,0.00,,,0.01,,2013-03-31 22:53:00,
2013-03-31 19:03:00,57.0,46.0,29.75,NNW,331,7.0,10.0,67,0.00,,,0.01,,2013-03-31 23:03:00,
2013-03-31 19:13:00,57.0,46.0,29.75,NNW,331,7.0,10.0,67,0.00,,,0.01,,2013-03-31 23:13:00,
2013-03-31 19:22:00,56.0,47.0,29.76,NW,317,8.0,11.0,71,0.00,,,0.01,,2013-03-31 23:22:00,
2013-03-31 19:32:00,56.0,46.0,29.75,NW,307,6.0,12.0,68,0.00,,,0.01,,2013-03-31 23:32:00,
2013-03-31 19:42:00,56.0,46.0,29.75,NW,307,6.0,12.0,68,0.00,,,0.01,,2013-03-31 23:42:00,
2013-03-31 19:53:00,56.0,45.0,29.76,NW,311,7.0,12.0,67,0.00,,,0.01,,2013-03-31 23:53:00,
2013-03-31 20:02:00,56.0,42.0,29.76,NW,315,7.0,15.0,59,0.00,,,0.01,,2013-04-01 00:02:00,
2013-03-31 20:12:00,56.0,42.0,29.76,NW,315,7.0,15.0,59,0.00,,,0.01,,2013-04-01 00:12:00,
2013-03-31 20:22:00,55.0,41.0,29.77,NW,325,6.0,10.0,59,0.00,,,0.01,,2013-04-01 00:22:00,
2013-03-31 20:32:00,55.0,41.0,29.77,NW,324,5.0,8.0,60,0.00,,,0.01,,2013-04-01 00:32:00,
2013-03-31 20:42:00,55.0,41.0,29.77,NW,324,5.0,8.0,60,0.00,,,0.01,,2013-04-01 00:42:00,
2013-03-31 20:53:00,54.0,42.0,29.78,NW,326,4.0,7.0,63,0.00,,,0.01,,2013-04-01 00:53:00,
2013-03-31 21:02:00,53.0,41.0,29.78,NNW,346,3.0,6.0,64,0.00,,,0.01,,2013-04-01 01:02:00,
2013-03-31 21:12:00,53.0,41.0,29.78,NNW,346,3.0,6.0,64,0.00,,,0.01,,2013-04-01 01:12:00,
2013-03-31 21:22:00,52.0,40.0,29.79,NNW,342,3.0,6.0,64,0.00,,,0.01,,2013-04-01 01:22:00,
2013-03-31 21:32:00,50.0,39.0,29.80,NNE,21,3.0,6.0,66,0.00,,,0.01,,2013-04-01 01:32:00,
2013-03-31 21:42:00,50.0,39.0,29.80,NNE,21,3.0,6.0,66,0.00,,,0.01,,2013-04-01 01:42:00,
2013-03-31 21:53:00,49.0,38.0,29.81,NNE,13,3.0,10.0,66,0.00,,,0.01,,2013-04-01 01:53:00,
2013-03-31 22:02:00,49.0,39.0,29.81,NE,45,3.0,8.0,68,0.00,,,0.01,,2013-04-01 02:02:00,
2013-03-31 22:12:00,49.0,39.0,29.81,NE,45,3.0,8.0,68,0.00,,,0.01,,2013-04-01 02:12:00,
2013-03-31 22:22:00,48.0,39.0,29.82,North,360,2.0,4.0,70,0.00,,,0.01,,2013-04-01 02:22:00,
2013-03-31 22:32:00,47.0,38.0,29.82,NNE,33,0.0,4.0,71,0.00,,,0.01,,2013-04-01 02:32:00,
2013-03-31 22:42:00,47.0,38.0,29.82,NNE,33,0.0,4.0,71,0.00,,,0.01,,2013-04-01 02:42:00,
2013-03-31 22:53:00,46.0,38.0,29.83,NNE,33,0.0,1.0,73,0.00,,,0.01,,2013-04-01 02:53:00,
2013-03-31 23:02:00,45.0,38.0,29.83,NNE,33,1.0,3.0,75,0.00,,,0.01,,2013-04-01 03:02:00,
2013-03-31 23:12:00,45.0,38.0,29.83,NNE,33,1.0,3.0,75,0.00,,,0.01,,2013-04-01 03:12:00,
2013-03-31 23:22:00,45.0,37.0,29.84,North,5,4.0,7.0,74,0.00,,,0.01,,2013-04-01 03:22:00,
2013-03-31 23:34:00,45.0,35.0,29.85,North,360,7.0,11.0,69,0.00,,,0.01,,2013-04-01 03:34:00,
2013-03-31 23:43:00,45.0,35.0,29.85,North,360,7.0,11.0,69,0.00,,,0.01,,2013-04-01 03:43:00,
2013-03-31 23:53:00,45.0,36.0,29.86,NNE,13,7.0,18.0,71,0.00,,,0.01,,2013-04-01 03:53:00,